GFSSE_850_rhum_195.txt.gz
RH
91 94 83 85 86 86 86 89 89 89 91 88 86 84 80 77 72 74 61 40 45 50 58 61 82 65 67 63 75 54 46 39 38 39 47 76 75 77 61 65 91 97 79
87 94 83 86 85 84 81 85 90 90 89 90 90 90 90 87 87 83 77 76 70 49 54 57 75 98 82 85 83 70 55 46 40 45 39 46 77 90 84 86 92 96 88
78 89 96 83 82 82 81 80 83 85 87 89 90 90 90 87 88 88 88 86 80 80 76 58 55 66 85 96 86 82 72 55 44 45 52 66 82 78 85 92 99 93 91
81 81 92 72 66 68 75 76 77 78 79 79 80 82 84 84 85 88 89 88 87 86 84 85 79 61 65 79 84 88 80 74 56 45 49 82 72 53 69 88 91 91 90
87 90 60 51 53 59 64 66 65 64 64 63 64 63 62 63 68 81 88 90 90 87 88 88 84 85 85 65 71 84 85 80 75 58 53 88 88 80 44 48 73 78 85
83 79 50 47 46 48 51 52 52 53 53 51 51 52 54 57 61 66 71 84 88 89 86 85 84 88 90 87 85 85 80 78 80 75 73 85 64 85 52 39 36 34 42
62 65 52 46 44 44 43 42 40 38 36 33 31 30 29 28 32 40 49 56 67 71 78 82 85 84 81 86 89 88 89 90 86 93 96 89 85 56 52 50 48 41 43
62 56 53 47 46 42 39 39 38 37 35 33 31 29 27 26 25 24 24 26 37 50 59 64 70 76 79 80 77 87 89 90 88 86 91 94 91 66 55 54 56 65 71
63 58 57 54 44 38 37 36 34 35 34 30 24 20 18 17 19 21 21 19 19 23 27 40 54 59 63 69 73 75 82 83 90 92 96 96 96 73 62 60 60 61 85
60 59 57 54 44 42 44 29 30 31 28 21 19 18 17 17 15 16 16 16 16 16 17 19 25 30 50 58 61 65 71 79 80 88 93 92 95 92 74 70 66 65 64
60 58 56 40 48 34 34 31 28 28 25 22 21 21 20 23 21 19 18 18 18 19 19 19 18 18 23 28 41 57 60 63 73 81 85 92 96 93 87 80 78 78 75
40 38 29 28 30 34 32 31 31 30 27 25 24 24 24 24 24 23 27 23 23 22 23 27 28 26 22 20 40 40 36 54 70 78 86 90 86 91 93 90 90 90 88
28 19 22 19 19 24 31 28 48 34 30 28 28 28 28 28 28 35 41 48 32 37 43 37 37 64 69 60 51 50 48 47 52 63 80 85 92 82 85 89 92 93 92
18 18 20 23 23 21 25 31 35 36 31 34 30 29 29 31 34 43 36 35 33 34 33 37 32 46 53 59 61 64 57 48 45 46 51 62 68 62 63 79 87 82 91
17 16 17 23 25 24 26 30 33 32 32 32 35 35 35 35 33 31 28 26 30 30 32 28 28 36 43 45 50 57 62 66 59 49 48 49 50 37 33 49 69 77 84
23 23 24 25 28 31 34 33 34 35 36 34 29 28 28 26 27 26 25 26 18 34 47 50 44 39 33 47 43 44 51 58 62 61 56 54 53 36 24 25 35 45 56
23 25 27 29 29 32 35 33 31 29 28 30 31 32 34 33 31 27 25 23 20 30 44 58 54 60 49 51 55 48 43 49 55 61 62 62 66 62 36 31 27 29 36
25 23 23 23 25 27 27 26 28 28 31 33 36 40 41 38 37 33 26 25 23 17 60 71 57 56 57 60 62 62 60 56 58 60 61 65 64 59 63 39 35 34 32
29 32 32 34 35 33 32 32 34 35 37 42 45 45 43 40 38 38 28 27 32 16 51 76 78 81 73 79 77 70 69 71 65 62 66 65 62 59 45 70 46 36 42
24 25 28 35 33 28 26 25 42 57 60 62 54 49 46 42 41 42 32 28 26 27 51 77 86 89 87 89 86 78 81 81 64 58 75 78 71 59 64 60 63 65 51
24 24 26 27 28 32 36 36 39 49 56 62 74 50 50 47 44 42 38 31 30 28 36 60 83 94 91 92 84 77 83 75 84 84 84 84 73 70 78 82 83 80 82
33 35 37 38 38 39 39 39 38 38 37 32 32 39 47 51 47 42 41 35 29 24 31 55 68 92 94 96 95 82 72 80 84 82 86 84 88 85 86 75 71 71 66
36 35 36 37 38 37 39 40 40 44 53 56 65 71 63 45 45 47 41 34 29 26 22 41 62 77 96 94 94 98 76 64 72 76 86 84 85 84 86 88 75 69 62
40 32 32 32 35 38 40 41 39 40 48 55 52 45 36 36 39 46 43 35 32 26 24 24 46 63 88 94 98 100 98 94 74 65 75 84 85 79 79 84 83 84 76
32 34 35 37 41 42 40 36 35 36 39 47 61 54 45 46 42 42 41 36 34 31 26 21 23 41 83 74 98 99 96 91 83 82 75 67 72 73 76 75 80 80 84
41 40 41 42 40 36 34 33 36 37 38 42 52 55 63 72 54 45 40 39 37 35 32 26 24 40 78 87 89 90 98 96 87 88 84 85 85 74 73 74 75 80 84

GFSSE_850_rhum_201.txt.gz
RH
74 84 84 83 83 80 79 82 84 86 86 86 87 85 86 88 89 86 86 83 79 76 63 54 71 83 89 77 78 75 64 47 35 38 46 68 56 41 41 45 83 83 78
74 86 83 83 80 77 82 83 81 83 85 84 85 85 85 85 84 84 83 85 87 85 82 81 68 58 74 88 86 81 71 64 44 37 38 48 66 78 68 62 89 92 86
78 78 83 81 73 72 75 75 76 71 67 66 63 60 58 59 63 69 77 81 84 86 88 90 86 86 72 61 66 88 80 70 61 41 42 44 56 69 84 81 89 87 89
78 86 84 70 51 49 53 54 51 49 48 47 46 46 47 49 51 54 57 64 79 89 92 90 89 87 87 88 79 64 74 74 72 58 41 61 64 71 65 74 87 92 90
83 82 71 46 39 39 39 40 41 41 39 37 36 34 32 31 30 32 36 44 54 63 79 90 89 87 87 88 90 90 81 74 75 70 54 63 74 79 80 64 65 83 86
75 68 53 40 37 36 36 36 34 34 33 32 31 30 30 28 26 25 25 24 24 28 42 59 71 83 86 86 86 89 91 91 87 74 71 56 68 66 70 72 49 47 75
69 58 42 41 39 38 35 33 32 32 30 29 27 24 19 17 16 15 16 17 20 22 22 23 32 52 65 75 84 85 87 93 95 90 83 75 66 67 70 62 52 35 34
63 60 47 44 42 40 37 34 31 27 24 23 22 19 19 19 18 18 17 16 15 14 15 17 18 20 26 47 63 74 82 86 91 91 90 86 82 90 91 73 54 48 40
62 55 48 42 43 39 31 28 28 27 24 24 21 21 21 21 20 19 20 20 20 20 18 17 16 16 16 18 26 52 64 75 87 85 89 91 87 95 93 87 65 56 54
61 55 54 55 53 41 37 32 29 28 24 24 22 22 23 22 22 22 24 24 22 22 23 23 21 19 19 20 18 19 34 59 66 77 82 84 91 96 95 89 81 60 58
62 63 61 57 45 48 50 43 30 28 25 24 23 23 22 21 22 24 25 26 27 27 24 24 23 24 25 23 28 27 22 27 49 61 65 76 85 89 94 93 90 77 65
58 51 48 42 30 32 44 43 41 31 31 29 25 23 27 27 29 29 30 30 30 28 28 26 25 24 26 27 29 45 44 42 44 46 54 68 75 84 84 94 98 92 80
40 28 19 20 26 26 27 36 41 39 32 28 27 28 26 22 21 21 21 22 23 24 22 20 18 17 18 22 28 32 49 57 53 53 51 54 64 86 88 87 97 100 94
18 16 14 14 16 24 27 29 33 32 29 28 31 24 22 23 25 26 24 22 20 20 19 20 18 13 13 17 24 28 43 56 55 51 50 49 57 72 84 79 91 98 97
19 18 18 18 20 24 26 31 31 29 29 26 26 25 25 27 30 29 26 26 23 18 16 16 15 11 15 14 15 25 38 50 54 55 46 46 49 53 58 66 71 64 66
22 20 21 24 24 26 28 28 27 24 22 24 27 29 29 29 28 25 24 28 26 19 18 16 14 13 15 14 14 30 40 42 46 51 53 51 48 47 51 51 46 38 35
20 17 17 18 19 21 22 21 21 22 25 31 32 33 30 27 28 30 28 31 27 20 20 17 21 16 23 26 26 35 46 52 44 45 53 54 56 56 49 44 40 37 32
23 20 21 22 23 24 24 23 25 27 32 42 42 39 34 32 32 34 32 34 29 24 23 20 23 14 25 44 46 46 46 56 60 50 50 58 58 57 52 54 47 40 35
22 20 20 21 22 24 25 28 32 35 40 49 60 56 43 38 37 39 36 34 29 26 24 24 22 23 29 58 49 60 55 49 58 59 53 58 62 60 59 59 56 53 46
21 20 22 26 29 31 35 35 34 35 38 47 54 55 47 40 38 39 38 34 30 26 25 24 21 22 47 72 53 66 71 70 65 66 61 68 66 62 63 66 62 62 68
23 28 31 33 35 36 36 34 31 32 36 40 44 48 51 52 39 34 41 38 34 29 27 24 22 23 29 47 56 55 78 84 80 75 74 81 77 71 76 81 79 83 80
32 33 33 34 33 32 30 32 37 38 35 34 39 49 52 52 45 38 43 41 37 31 28 24 24 24 27 54 67 90 87 88 85 84 80 82 80 76 79 79 80 81 80
34 33 30 27 28 30 36 38 36 33 33 34 40 45 53 50 44 43 47 42 37 34 28 25 23 24 32 42 58 95 90 93 79 85 82 82 85 85 84 82 81 77 77
35 34 30 31 35 37 35 32 31 32 33 36 39 43 52 62 60 56 52 43 39 34 30 29 26 22 24 32 47 60 96 94 93 75 85 85 87 85 79 78 77 77 76
36 30 36 38 38 34 31 30 31 32 33 36 39 40 48 53 58 63 57 46 40 34 32 32 29 26 27 30 37 50 47 89 94 87 86 75 82 81 77 75 73 71 76
32 36 36 34 34 32 32 31 31 32 32 33 39 41 45 53 63 67 64 55 46 39 35 34 34 31 29 29 35 45 56 58 86 90 90 78 55 31 33 38 62 72 76

GFSSE_850_rhum_204.txt.gz
RH
71 78 82 83 83 80 78 80 82 82 84 85 82 82 84 85 84 84 84 88 88 83 79 71 58 72 84 87 86 84 75 58 38 35 35 56 32 49 50 62 73 77 75
73 77 83 83 82 79 78 81 80 81 83 80 76 73 71 70 70 71 74 84 87 90 89 88 83 76 59 75 83 81 86 76 57 38 36 41 58 48 43 43 82 85 78
72 73 81 80 74 70 74 71 69 67 62 55 50 48 48 48 48 49 50 54 67 79 85 86 89 87 87 79 65 63 83 85 78 52 40 38 52 74 85 83 78 86 73
77 81 81 76 54 46 45 45 45 44 42 42 41 40 37 35 34 34 37 42 48 54 66 80 87 89 90 89 88 83 72 75 78 77 49 48 45 53 68 73 79 84 83
80 83 76 51 39 35 37 36 36 36 35 34 32 31 30 29 28 26 26 25 26 32 45 57 69 82 90 88 88 91 90 85 77 80 71 66 67 58 56 65 66 77 87
82 76 63 41 37 36 36 34 33 32 32 31 30 27 23 20 17 16 16 17 20 24 24 25 37 54 67 79 85 87 86 91 90 86 80 68 81 78 65 67 62 53 79
76 69 51 40 39 38 36 35 34 31 27 22 21 19 18 18 18 18 18 16 16 15 16 18 21 22 28 49 65 74 82 90 91 90 91 81 71 80 77 66 64 52 37
67 63 58 45 42 40 37 34 30 26 24 22 22 20 20 20 20 20 20 20 20 20 19 17 16 15 16 18 24 47 64 78 89 88 89 89 86 76 78 87 81 57 40
69 64 52 44 42 39 33 30 28 28 25 23 23 23 22 22 21 21 21 21 21 22 22 21 21 20 18 16 15 16 26 54 68 83 88 92 91 87 85 90 86 75 50
65 61 52 47 45 40 31 32 31 29 26 24 24 25 23 22 22 23 23 24 24 26 26 25 23 22 22 21 20 18 17 18 38 61 72 89 90 97 95 95 92 90 66
60 59 58 56 54 47 38 36 34 33 30 26 25 24 24 27 27 28 28 29 28 29 28 27 26 24 24 24 24 24 25 23 20 29 55 64 71 86 96 97 96 94 83
60 62 60 54 47 38 32 40 36 32 30 27 27 25 28 27 23 21 21 22 22 21 22 23 21 18 17 17 20 24 27 35 36 30 38 46 55 68 76 82 98 100 94
59 53 47 38 26 29 34 36 38 33 31 31 29 29 24 22 23 22 23 23 21 19 18 16 16 16 15 14 12 15 25 27 42 54 56 54 56 60 68 77 90 94 100
32 22 18 15 16 20 24 27 29 29 29 31 30 22 21 24 28 27 24 22 22 22 18 14 15 14 13 12 11 12 17 28 37 53 55 54 51 56 66 79 89 92 82
19 17 18 18 19 22 23 26 27 28 29 25 22 22 24 29 30 26 22 21 21 23 19 15 14 13 12 10 10 12 18 26 35 51 54 54 52 50 51 63 74 79 79
21 22 21 21 22 24 26 28 26 22 21 22 24 26 28 30 29 27 25 22 23 23 19 17 15 15 12 12 15 18 23 27 33 42 49 53 53 50 52 51 54 58 54
22 19 18 18 19 20 21 21 22 24 26 29 32 35 36 36 32 32 30 26 25 25 21 20 17 17 12 14 25 30 26 30 39 39 44 49 53 52 49 54 45 42 40
22 21 20 19 19 21 22 23 25 28 32 37 39 44 48 46 41 38 36 30 26 24 21 19 18 16 13 16 33 42 35 37 48 51 45 46 53 54 54 54 54 50 48
25 20 18 18 22 25 27 31 35 35 34 35 39 44 47 46 50 46 42 35 28 25 21 19 20 19 12 13 28 44 53 46 59 56 56 49 57 60 62 58 52 52 54
26 19 20 25 30 31 35 35 34 33 33 35 39 43 46 50 57 54 45 38 33 29 24 22 21 19 15 14 31 52 77 69 68 73 66 62 65 63 65 64 58 57 62
23 20 29 32 34 36 35 32 28 30 35 36 38 44 52 57 62 56 45 39 37 33 25 24 23 20 16 15 35 71 83 84 79 81 82 81 77 76 80 76 73 78 78
21 29 33 34 35 31 29 32 37 35 30 30 31 36 46 54 58 55 48 42 41 34 28 28 27 22 23 28 30 82 86 86 82 84 88 89 85 83 85 83 81 79 77
23 32 33 32 28 29 34 35 32 31 31 31 33 34 38 45 51 54 55 50 43 34 30 30 31 28 26 40 53 64 84 92 84 88 89 88 88 87 84 81 76 73 75
24 32 31 29 34 36 34 31 29 29 29 29 31 34 37 45 50 53 58 54 45 37 32 32 32 32 26 36 44 52 76 84 89 76 89 88 89 87 82 77 75 73 72
26 30 27 35 36 33 31 30 31 31 30 30 31 35 40 45 52 58 63 64 52 43 37 35 35 35 32 35 41 46 57 83 94 90 80 70 67 83 82 77 73 73 70
29 30 30 37 33 33 32 33 34 32 30 29 30 33 38 41 45 50 57 60 55 51 44 40 38 39 39 36 40 47 60 74 94 92 91 76 47 32 25 30 33 62 70

GFSSE_850_rhum_207.txt.gz
RH
73 73 82 79 82 81 78 76 84 80 82 82 80 79 78 78 78 80 82 84 86 86 84 82 77 64 69 85 84 89 86 75 56 40 41 66 40 55 67 68 68 76 74
72 73 76 78 81 78 76 80 76 76 77 74 66 60 56 52 49 51 57 66 74 82 82 85 88 89 85 69 73 83 74 88 75 53 40 40 66 44 45 44 54 84 76
73 73 78 80 77 71 72 71 67 60 53 48 44 42 42 41 39 38 40 44 47 53 66 78 84 86 87 88 88 78 66 77 87 78 50 40 46 77 66 62 62 84 76
74 70 75 77 58 46 46 45 44 42 40 38 36 33 31 29 28 27 27 27 30 36 44 52 61 74 83 84 86 88 87 83 81 80 76 49 45 54 77 85 82 80 81
75 74 81 61 40 36 36 36 36 35 34 32 31 30 28 26 24 22 21 22 24 25 26 31 41 51 62 78 88 87 90 92 92 88 83 73 56 61 56 65 74 75 79
80 83 76 52 37 37 36 35 34 33 32 29 24 20 18 17 16 16 16 16 16 16 18 22 24 26 36 50 66 78 86 88 91 94 92 85 70 71 77 67 70 67 73
83 76 64 46 42 40 38 37 35 32 26 22 21 20 19 19 19 19 19 19 19 19 18 16 15 16 19 22 27 45 61 74 87 89 93 96 92 74 73 80 75 73 63
81 71 63 55 46 42 40 37 30 27 25 23 22 21 21 21 21 21 20 20 20 20 20 20 20 19 17 15 16 18 22 40 60 75 84 88 97 96 84 77 77 73 75
68 67 65 55 48 43 39 34 32 29 27 24 24 22 22 21 21 22 22 22 23 24 24 23 22 21 20 19 19 17 16 16 21 42 63 75 82 99 99 90 80 88 85
72 67 56 50 48 47 44 36 34 32 28 27 26 24 23 23 25 27 28 30 29 28 27 26 26 25 23 22 21 20 19 19 17 16 24 54 70 87 99 100 88 91 91
67 62 55 53 53 54 47 39 33 34 31 30 28 27 27 29 28 26 26 26 24 21 20 21 23 22 21 19 19 20 22 22 22 21 18 17 42 63 75 90 98 99 96
65 61 59 59 54 48 43 37 36 32 33 32 31 29 31 27 22 21 23 24 24 22 20 18 17 17 16 15 14 13 13 18 24 24 25 27 25 38 57 64 77 92 99
56 59 59 55 47 38 32 35 36 34 32 33 32 32 28 23 22 23 25 26 25 23 21 19 16 12 11 10 11 10 9 11 18 26 26 39 45 49 52 60 68 84 93
52 50 45 29 20 20 24 29 33 36 35 34 32 25 24 26 26 25 24 21 20 19 20 19 16 12 11 10 10 8 9 13 16 23 32 48 54 55 53 55 68 96 99
27 22 19 19 20 21 23 27 30 31 31 28 24 25 27 28 27 26 27 25 22 22 22 20 16 14 12 11 9 9 12 15 17 29 33 47 54 56 57 53 58 70 87
22 21 21 22 21 21 26 28 28 24 22 23 26 30 32 33 34 32 32 29 23 23 25 22 18 14 12 11 8 13 24 19 22 32 36 44 52 56 57 57 53 54 69
21 21 19 17 17 19 20 20 21 22 24 29 33 37 40 43 44 41 35 33 27 25 23 20 16 15 13 11 9 26 34 29 28 46 47 44 47 58 61 57 57 53 50
21 21 20 20 19 20 21 22 24 29 32 33 33 34 37 42 45 45 41 36 32 29 26 20 18 15 13 10 10 24 38 38 38 40 56 62 54 60 64 63 58 57 50
23 25 20 18 20 25 29 31 36 35 35 34 34 36 40 45 48 50 47 37 35 34 32 23 20 18 13 10 10 39 55 53 53 52 56 66 65 60 63 60 57 56 51
27 27 19 21 27 32 34 37 35 33 30 33 36 38 40 43 47 52 53 42 38 37 34 26 21 20 17 15 23 60 73 71 69 76 77 83 85 80 76 72 65 68 70
31 27 19 28 33 35 36 32 28 30 34 32 30 32 36 43 49 51 52 46 39 39 34 27 22 20 15 15 25 83 83 84 82 84 90 88 84 85 89 88 88 90 86
34 24 26 33 35 33 27 28 35 30 27 27 28 30 32 38 43 48 51 47 44 41 36 29 25 21 19 23 35 72 83 84 85 86 89 89 85 85 84 80 77 76 79
34 25 32 33 32 27 30 32 30 28 29 29 30 32 34 35 39 46 51 52 50 42 36 30 29 25 22 28 38 45 78 93 85 90 89 89 88 88 85 83 80 76 74
34 28 33 33 27 32 34 30 31 31 32 31 29 29 32 36 41 47 52 56 54 43 39 33 31 29 26 27 32 46 51 81 91 83 86 88 89 89 88 84 78 76 74
33 29 34 29 30 34 31 31 32 34 33 32 30 30 32 38 41 48 54 59 58 50 45 39 35 33 30 30 29 32 44 64 90 96 85 63 62 53 56 62 71 76 76
31 31 31 28 34 32 31 32 35 36 35 34 32 30 32 35 42 46 51 54 55 54 51 46 40 38 36 34 34 35 38 49 71 87 85 57 37 31 30 38 39 49 74

GFSSE_850_rhum_213.txt.gz
RH
66 70 70 66 76 80 80 78 80 79 78 78 76 65 51 44 42 41 41 43 49 59 71 79 84 86 90 90 87 83 86 85 79 81 61 39 42 36 59 87 84 70 63
60 67 76 78 80 78 76 77 79 74 69 59 47 41 38 35 33 31 31 31 32 35 37 40 48 58 68 77 81 88 85 81 80 85 83 61 40 46 38 50 76 71 63
71 72 75 80 77 73 66 70 63 53 46 41 36 33 31 29 28 28 27 26 25 25 26 27 32 36 41 49 64 78 89 91 92 91 88 81 61 43 54 40 42 45 59
75 74 73 68 63 55 46 43 41 39 36 33 31 30 27 23 20 18 18 17 17 18 19 21 23 24 27 33 41 54 69 81 90 94 92 86 82 60 44 66 76 59 65
74 66 72 73 51 40 38 37 35 34 33 31 28 21 19 18 17 17 18 18 18 17 16 15 15 15 17 21 24 30 40 52 73 86 92 93 87 80 60 50 59 79 84
71 74 81 66 42 39 38 37 36 35 32 26 22 21 20 19 19 19 18 17 17 17 17 17 17 17 16 14 14 16 20 24 38 57 72 88 93 92 83 66 58 56 66
75 84 75 54 47 44 42 41 38 31 27 26 24 22 21 20 19 18 18 18 18 18 18 18 18 17 17 17 17 16 14 14 17 21 34 56 74 88 95 94 84 66 68
88 82 72 61 56 48 45 41 34 29 28 27 25 24 22 21 19 18 21 23 24 25 25 25 24 24 23 21 19 17 16 16 16 15 15 18 31 54 78 84 95 89 74
84 80 66 65 54 48 45 41 40 34 30 29 28 26 23 22 21 24 24 23 21 20 20 19 19 19 21 22 22 21 20 19 18 16 16 16 15 17 30 55 76 85 94
80 71 68 63 53 48 49 48 43 38 35 33 29 28 25 24 27 24 20 18 18 18 19 19 18 18 18 17 16 15 14 14 13 13 16 18 17 16 16 16 29 54 68
76 70 67 59 52 52 54 49 44 37 38 36 30 27 26 27 25 19 18 18 18 18 16 16 16 16 17 16 14 11 8 9 10 10 10 11 14 18 20 20 18 18 32
69 66 63 56 54 53 51 46 39 32 34 35 32 28 28 25 19 19 20 20 18 16 15 14 14 15 15 15 13 10 8 8 8 8 8 9 11 17 22 27 38 37 22
67 66 60 53 54 52 44 34 28 30 30 32 32 30 24 21 23 27 28 27 24 21 18 16 16 17 16 14 13 11 9 8 7 7 9 11 14 19 23 28 89 67 36
66 63 53 54 48 35 21 21 24 28 30 32 31 24 21 25 29 31 32 31 29 27 24 20 18 16 13 11 10 9 8 8 8 10 12 15 20 22 26 32 68 57 52
59 50 49 40 24 19 21 22 24 27 28 25 21 22 28 32 34 35 36 36 34 31 29 25 22 18 15 12 10 9 8 8 13 14 16 20 23 28 28 34 82 67 57
46 42 28 22 21 22 20 20 22 21 20 21 26 32 35 37 37 39 40 40 40 36 32 30 27 22 16 12 10 9 8 10 20 24 26 30 31 36 38 45 61 76 76
29 24 23 22 22 18 17 17 17 19 23 30 33 33 33 33 36 40 43 44 44 41 35 33 30 24 17 13 11 9 13 22 31 36 39 40 45 44 48 55 60 64 72
23 24 24 22 20 18 17 19 23 28 34 33 33 30 32 34 36 41 45 46 48 44 38 35 32 24 16 13 11 24 44 46 45 47 47 50 57 58 64 64 62 63 61
24 26 24 22 22 19 21 28 32 35 34 29 30 34 34 31 30 35 46 49 50 46 41 37 32 24 18 14 19 50 67 66 65 65 64 67 68 65 62 64 63 64 65
29 28 24 26 23 21 29 33 36 32 28 32 29 28 28 29 30 34 44 48 47 47 43 39 33 25 20 15 31 71 81 81 80 79 80 82 83 81 79 82 84 82 82
30 28 26 28 22 25 32 35 30 28 32 28 28 30 30 30 30 35 41 47 48 46 45 40 33 27 22 17 19 84 89 90 88 86 87 87 85 83 84 84 86 88 86
30 29 30 29 21 30 34 31 27 32 28 30 32 31 30 30 30 33 37 46 48 49 49 41 36 31 28 22 21 49 89 89 92 92 93 92 87 86 86 83 80 78 80
30 31 31 27 24 30 33 27 33 30 31 33 33 32 31 30 30 33 36 43 48 49 50 46 42 36 34 30 27 28 48 75 55 91 96 94 92 89 86 84 80 78 74
30 33 33 28 27 33 33 31 34 32 33 34 34 34 31 30 30 31 35 41 46 50 51 48 46 41 37 36 34 33 35 41 51 70 82 89 83 67 60 58 70 79 77
36 36 36 30 30 33 29 34 32 30 32 36 36 34 31 30 30 32 36 42 47 52 53 52 49 47 43 42 40 38 38 45 60 61 70 49 39 40 31 32 29 60 79
41 39 37 32 29 30 27 33 32 32 34 37 37 35 34 33 30 30 32 37 43 49 53 54 54 52 48 47 45 42 42 42 48 52 50 43 42 42 42 53 54 55 73

GFSSE_850_rhum_219.txt.gz
RH
68 49 47 52 64 70 71 82 82 72 66 62 54 40 34 32 30 29 28 28 28 29 31 33 36 40 48 59 72 84 88 85 87 82 71 73 53 38 36 65 83 92 88
76 61 51 60 69 69 79 76 72 64 50 41 37 32 29 27 26 24 23 22 22 22 22 23 23 24 26 31 39 53 69 77 87 87 83 78 75 56 40 39 43 84 84
74 88 62 67 71 76 68 59 52 42 37 34 31 29 27 21 17 16 16 15 15 15 14 14 14 15 17 20 23 28 36 51 69 82 88 85 98 89 63 42 47 41 57
77 90 97 77 60 62 48 43 40 36 32 30 30 26 20 18 18 18 18 17 16 16 15 15 14 14 14 13 13 16 19 24 38 53 76 96 89 99 90 67 44 58 66
83 84 92 66 51 42 39 38 36 34 33 30 24 20 20 20 19 18 17 16 16 16 16 16 16 15 14 14 14 14 13 14 18 25 65 91 92 99 99 88 72 54 58
83 87 66 58 43 39 39 38 37 36 30 24 22 22 22 21 20 18 17 18 20 22 23 24 23 22 21 20 18 16 14 15 14 26 46 54 46 85 72 86 90 86 67
78 94 63 51 43 43 42 41 39 32 28 25 24 24 23 21 20 20 24 25 25 23 21 20 19 18 18 18 19 19 17 16 15 16 23 24 17 19 34 52 73 90 90
80 96 68 52 52 49 44 42 38 38 34 30 28 26 24 22 21 23 24 21 18 16 16 16 16 15 15 16 16 16 17 17 17 17 18 16 16 14 14 18 31 54 78
87 92 84 59 57 49 45 43 45 44 38 31 30 27 25 23 23 24 20 17 16 17 16 14 13 12 12 12 13 14 15 14 12 11 13 13 14 15 15 14 14 18 35
92 88 83 84 70 58 44 46 48 45 40 32 31 27 25 24 25 18 16 19 22 21 20 18 16 14 12 11 10 10 11 12 14 20 11 15 11 11 13 16 17 17 16
90 83 81 80 75 69 73 46 50 46 38 32 29 27 25 37 22 19 23 26 26 25 25 24 22 20 16 14 11 10 10 14 27 32 29 22 10 9 10 12 16 20 21
85 80 75 72 75 62 58 62 58 46 46 45 32 28 38 24 19 26 26 27 27 28 29 28 27 26 23 19 21 14 18 22 31 33 39 22 9 9 10 12 16 22 26
79 76 68 67 63 58 60 61 68 57 48 27 25 26 21 21 30 44 41 36 31 34 34 32 30 31 28 26 23 20 18 25 35 44 42 15 10 12 14 17 21 26 30
75 74 64 65 59 51 49 35 53 44 31 45 45 20 22 32 43 53 53 44 47 44 43 35 32 36 31 31 25 22 20 15 25 40 49 25 15 17 20 23 24 45 44
74 70 64 62 53 45 28 21 24 34 30 40 19 23 30 32 40 42 50 55 50 43 45 40 37 32 31 33 33 32 28 23 19 43 56 54 24 24 25 27 29 75 92
74 68 65 55 46 28 21 21 32 27 20 17 26 33 30 30 31 35 40 62 52 42 40 39 40 34 40 42 33 52 66 70 65 58 61 68 52 33 31 33 72 86 74
69 67 59 44 29 21 22 19 20 17 20 27 33 31 28 30 32 32 33 36 56 42 40 38 44 33 40 38 46 70 76 77 75 74 74 76 76 74 48 41 47 44 48
66 60 46 33 22 22 21 18 18 21 28 34 31 28 29 27 28 29 31 45 50 45 48 41 39 33 30 39 41 77 83 86 83 80 81 85 80 79 88 74 48 46 48
58 51 36 25 24 22 19 18 20 29 33 31 28 30 27 28 29 30 34 47 47 47 49 44 40 35 30 27 32 80 90 92 90 87 88 89 73 64 75 85 68 70 67
50 42 29 26 24 22 21 19 28 32 32 26 30 27 30 30 31 31 36 43 41 48 66 48 41 35 42 28 29 80 91 89 87 84 88 86 82 74 80 76 84 95 87
40 31 28 26 25 23 23 23 34 40 28 31 27 30 31 31 31 30 33 36 43 52 48 48 41 40 50 30 53 51 84 79 88 86 87 87 85 80 76 73 75 80 93
31 30 30 29 26 26 23 27 34 31 29 29 29 31 32 31 30 28 29 31 35 41 52 45 42 40 58 40 36 57 54 70 84 78 79 78 80 80 79 76 73 72 82
51 34 33 31 27 28 22 27 33 27 32 28 30 32 32 31 29 28 28 32 36 40 46 46 45 43 40 55 37 39 52 47 46 64 86 86 75 72 58 55 69 74 71
58 60 38 32 29 28 24 30 32 29 43 33 30 33 33 31 30 29 28 29 32 39 46 51 49 47 45 54 52 45 33 39 62 52 59 73 62 49 29 23 29 46 77
59 64 39 32 32 28 26 30 31 29 33 29 30 34 34 32 32 31 30 29 31 36 43 47 47 49 50 50 57 54 62 65 74 74 61 53 58 58 49 31 34 60 86
66 50 37 34 34 29 29 28 30 30 34 31 31 34 35 35 34 33 32 30 30 31 36 40 41 42 46 48 49 52 56 71 68 72 69 66 68 63 56 40 43 55 62

GFSSE_850_rhum_225.txt.gz
RH
81 61 45 46 52 63 72 74 70 55 41 35 31 27 25 23 18 15 15 14 14 14 14 14 15 17 19 20 22 26 29 39 57 67 81 81 78 71 48 42 84 84 90
61 45 45 50 59 71 74 68 52 38 33 30 27 26 21 16 16 17 16 16 16 15 14 14 13 13 13 13 14 17 20 24 35 48 70 86 86 87 89 74 46 60 80
53 42 47 56 71 73 59 42 34 31 29 28 26 20 17 17 18 17 16 14 14 14 14 13 13 13 13 13 13 12 13 14 20 30 53 80 80 80 82 90 83 50 45
56 45 49 59 69 61 37 31 30 29 28 24 19 18 19 19 18 16 15 15 16 18 20 21 21 20 19 18 17 16 14 13 13 17 35 63 81 82 79 86 92 80 52
56 56 56 57 54 37 31 31 30 29 23 20 18 19 20 19 17 16 17 20 22 22 20 19 17 16 17 17 18 18 19 17 15 15 24 51 84 84 87 94 98 92 88
60 59 64 46 34 31 33 32 30 26 24 22 20 21 20 18 16 17 20 21 18 14 12 12 11 11 11 10 11 14 16 17 18 16 20 27 39 47 70 81 70 69 89
80 78 54 41 33 34 35 33 29 29 27 24 21 21 19 17 17 20 19 14 12 16 18 17 15 14 12 11 10 9 10 14 15 16 18 20 24 30 28 30 33 38 58
75 72 48 38 38 38 35 33 32 33 29 23 21 19 19 18 19 17 13 16 22 22 22 22 21 20 19 16 14 11 10 9 11 14 13 13 17 18 20 20 17 16 21
82 72 46 42 42 38 36 34 35 33 29 23 20 18 19 19 16 12 21 23 22 23 24 25 25 25 24 22 19 14 11 12 14 18 21 18 15 13 14 16 17 19 18
81 68 53 50 49 43 37 38 37 35 28 22 18 18 19 16 13 22 24 25 25 24 25 27 27 27 27 27 26 23 18 16 16 19 24 28 28 24 18 14 11 14 18
84 77 57 52 52 44 40 42 40 31 23 19 17 19 16 15 22 28 26 26 26 26 28 29 28 27 28 28 28 26 22 18 18 24 32 38 40 31 16 10 10 12 16
86 74 65 64 54 48 42 42 39 27 21 16 15 17 16 21 32 27 26 27 31 30 27 28 28 28 28 29 30 28 23 20 18 23 34 42 41 32 14 13 14 17 24
82 79 81 75 69 67 59 48 38 24 23 18 21 18 18 29 28 31 32 32 33 31 29 29 28 28 28 30 30 27 25 24 18 20 26 39 45 30 21 22 25 27 43
81 75 74 71 61 61 54 49 45 33 29 22 20 20 26 27 29 29 32 31 31 30 30 28 28 28 29 29 29 30 38 41 40 32 29 46 56 46 34 77 81 82 89
73 70 65 60 64 66 54 46 33 28 25 22 24 23 29 28 27 29 30 29 30 31 30 29 28 29 28 28 28 35 48 52 55 55 46 54 71 65 48 60 87 83 90
80 74 68 61 63 61 46 29 22 23 21 20 20 28 26 27 27 26 28 30 30 31 30 29 28 28 29 28 26 37 53 60 68 70 66 57 67 70 72 63 53 43 41
79 75 71 61 60 52 35 21 20 19 16 18 27 29 26 28 26 28 29 29 30 30 31 31 31 31 30 28 24 31 46 60 69 76 74 72 72 75 71 68 58 50 46
76 76 75 58 60 48 27 21 20 18 17 24 30 24 27 26 28 28 29 29 29 31 31 31 31 31 30 30 25 30 39 49 67 73 72 62 64 63 63 64 63 67 68
79 78 62 59 61 42 24 22 19 18 22 29 27 26 26 27 29 29 29 28 30 33 32 33 35 32 32 31 28 31 46 48 52 61 64 64 67 66 65 67 68 68 72
75 75 63 63 59 34 25 22 20 20 27 30 24 27 27 29 30 29 27 27 30 33 35 37 37 36 36 34 30 31 47 70 65 54 52 58 62 67 66 67 70 73 70
65 68 70 67 55 31 25 21 21 23 29 29 27 26 28 30 31 28 26 27 30 33 34 37 39 37 36 35 33 42 54 68 80 52 57 52 48 48 51 56 62 74 76
55 65 70 65 46 31 26 24 23 25 29 27 29 26 29 31 30 28 27 27 28 33 34 38 41 39 39 40 39 37 44 63 72 45 63 60 54 49 41 26 21 37 70
45 48 61 58 42 33 28 26 25 29 33 27 29 27 31 32 31 29 28 28 28 29 30 33 40 39 39 42 43 45 43 46 37 55 67 62 59 56 54 50 36 24 41
36 41 54 52 43 38 31 30 27 32 33 28 30 29 29 32 32 31 30 29 29 28 29 32 34 37 36 38 45 47 49 53 53 45 49 57 57 59 54 52 47 33 33
37 41 52 55 49 43 35 31 29 33 32 29 32 30 30 32 32 33 33 32 31 30 30 30 32 34 34 36 39 40 44 49 66 76 65 45 39 45 50 49 51 44 43
47 53 61 60 53 45 39 32 30 34 34 32 35 32 31 31 33 35 36 35 35 35 32 30 29 30 31 33 36 40 42 47 49 55 58 45 40 35 38 43 52 52 44